Location: Passau
(48.5830°N, 13.4830°E)
Time: 21:53:56
(UTC+02:00)

Vanguard 3 - Pass Details

Date: 20 May 2024
Orbit: 509 x 3231 km, 33.3° (Epoch: 16 June)

Event Time Altitude Azimuth Distance (km) Brightness Sun altitude
Rises 01:09:26 0° 269° (W) 5,965 11.5 -21.4°
Reaches altitude 10° 01:13:24 10° 261° (W) 5,278 11.2 -21.3°
Maximum altitude 01:27:45 37° 203° (SSW) 4,218 10.2 -21.2°
Drops below altitude 10° 01:44:21 10° 146° (SE) 6,050 11.2 -20.7°
Sets 01:49:22 0° 139° (SE) 6,896 11.5 -20.6°
